Weather History for Spokane, WA

Change the Weather History Date:

Thursday, August 21, 2014

  Actual Average Record
Temperature  
Mean Temperature 68 °F 68 °F  
Max Temperature 80 °F 82 °F 99 °F (1888)
Min Temperature 57 °F 55 °F 43 °F (1945)
Degree Days  
Heating Degree Days 0 1  
Month to date heating degree days 0 16  
Since 1 June heating degree days 113 184  
Since 1 July heating degree days 7 48  
Cooling Degree Days 4 5  
Month to date cooling degree days 206 131  
Year to date cooling degree days 574 374  
Since 1 June cooling degree days 568 360  
Growing Degree Days 18 (Base 50)    
Moisture  
Dew Point 51 °F    
Average Humidity 61    
Maximum Humidity 89    
Minimum Humidity 28    
Precipitation  
Precipitation 0.00 in 0.02 in 0.98 in (1943)
Month to date precipitation 0.17 0.39  
Year to date precipitation 9.59 9.91  
Sea Level Pressure  
Sea Level Pressure 29.92 in    
Wind  
Wind Speed 5 mph ()    
Max Wind Speed 23 mph    
Max Gust Speed 27 mph    
Visibility 10.0 miles    
Events Thunderstorm    
T = Trace of Precipitation, MM = Missing Value Source: Averaged Metar Reports

Daily Weather History Graph

Daily Weather History Graph

Search for Another Location

Airport:

Trip Planner

Search our weather history database for the weather conditions in past years. The results will help you decide how hot, cold, wet, or windy it might be!

Date:

Astronomy

Aug. 21, 2014 Rise Set
Actual Time 5:54 AM PDT 7:51 PM PDT
Civil Twilight 5:20 AM PDT 8:24 PM PDT
Nautical Twilight 4:40 AM PDT 9:05 PM PDT
Astronomical Twilight 3:54 AM PDT 9:49 PM PDT
Moon 2:21 AM PDT (8/21) 5:29 PM PDT (8/21)
Length of Visible Light 15h 03m
Length of Day
13h 57m
Waning Crescent, 13% of the Moon is Illuminated
Today
Waning Crescent
Aug 25
New
Sep 2
First Quarter
Sep 8
Full
Sep 15
Last Quarter

Hourly Weather History & Observations

Time (PDT) Temp. Dew Point Humidity Pressure Visibility Wind Dir Wind Speed Gust Speed Precip Events Conditions
12:24 AM 61.0 °F 55.9 °F 83% 29.92 in 10.0 mi East 3.5 mph - N/A Thunderstorm Mostly Cloudy
12:53 AM 61.0 °F 55.0 °F 81% 29.89 in 10.0 mi North 4.6 mph - N/A Thunderstorm Mostly Cloudy
12:59 AM 60.1 °F 55.0 °F 83% 29.93 in 10.0 mi WNW 8.1 mph - N/A   Mostly Cloudy
1:53 AM 61.0 °F 55.0 °F 81% 29.88 in 10.0 mi East 8.1 mph - N/A   Mostly Cloudy
2:53 AM 59.0 °F 55.0 °F 87% 29.90 in 10.0 mi ENE 5.8 mph - N/A   Scattered Clouds
3:53 AM 59.0 °F 53.1 °F 81% 29.91 in 10.0 mi East 6.9 mph - N/A   Scattered Clouds
4:53 AM 57.0 °F 53.1 °F 87% 29.92 in 10.0 mi SE 4.6 mph - N/A   Mostly Cloudy
5:53 AM 57.0 °F 53.1 °F 87% 29.93 in 10.0 mi SE 4.6 mph - N/A   Scattered Clouds
6:53 AM 57.0 °F 54.0 °F 89% 29.96 in 10.0 mi ESE 5.8 mph - N/A   Scattered Clouds
7:53 AM 60.1 °F 54.0 °F 80% 29.97 in 10.0 mi ESE 4.6 mph - N/A   Scattered Clouds
8:53 AM 62.1 °F 52.0 °F 70% 29.97 in 10.0 mi ESE 4.6 mph - N/A   Scattered Clouds
9:53 AM 66.0 °F 50.0 °F 56% 29.97 in 10.0 mi SE 5.8 mph - N/A   Scattered Clouds
10:53 AM 66.9 °F 48.9 °F 52% 29.97 in 10.0 mi SE 3.5 mph - N/A   Mostly Cloudy
11:53 AM 71.1 °F 50.0 °F 47% 29.95 in 10.0 mi Calm Calm - N/A   Mostly Cloudy
12:53 PM 73.0 °F 48.9 °F 42% 29.94 in 10.0 mi Calm Calm - N/A   Mostly Cloudy
1:53 PM 75.9 °F 48.9 °F 38% 29.92 in 10.0 mi Variable 5.8 mph - N/A   Mostly Cloudy
2:53 PM 77.0 °F 48.0 °F 36% 29.90 in 10.0 mi Calm Calm - N/A   Mostly Cloudy
3:53 PM 79.0 °F 46.9 °F 32% 29.88 in 10.0 mi North - - N/A   Mostly Cloudy
4:53 PM 78.1 °F 44.1 °F 30% 29.87 in 10.0 mi WNW 9.2 mph - N/A   Mostly Cloudy
5:53 PM 79.0 °F 43.0 °F 28% 29.86 in 10.0 mi NW 5.8 mph - N/A   Mostly Cloudy
6:53 PM 75.9 °F 48.0 °F 37% 29.87 in 10.0 mi North 17.3 mph - N/A   Mostly Cloudy
7:53 PM 68.0 °F 46.9 °F 47% 29.89 in 10.0 mi NNE 15.0 mph - N/A   Mostly Cloudy
8:53 PM 66.0 °F 48.9 °F 54% 29.90 in 10.0 mi NNE 9.2 mph - N/A   Mostly Cloudy
9:53 PM 64.0 °F 50.0 °F 60% 29.91 in 10.0 mi NNE 10.4 mph - N/A   Scattered Clouds
10:53 PM 63.0 °F 51.1 °F 65% 29.90 in 10.0 mi NNE 10.4 mph - N/A   Scattered Clouds